Simultaneous Nadir Overpasses (SNOs) Predictions

Prediction of SNOs between GOES-17 and NOAA-19 Satellite Orbit:

Table of predicted SNOs for the next 14.0 days since TLE Epoch: 5/15/2020
Index Date Time (GOES-17) GOES-17 Lat,Lon NOAA-19 Lat,Lon Distance(km) Time Diff (sec)
1 05/18/2020 03:06:48 -0.02,-137.17 -0.55,-139.53 268.87 80
2 05/19/2020 02:57:47 -0.02,-137.16 0.10,-136.67 55.88 80
3 05/20/2020 02:46:07 -0.02,-137.15 0.76,-133.82 380.43 80
4 05/22/2020 15:07:01 0.01,-137.13 0.40,-138.76 185.74 80
5 05/23/2020 14:52:40 0.01,-137.12 -0.28,-135.91 138.16 80
6 05/24/2020 14:41:00 0.01,-137.10 -0.95,-133.06 461.82 80
7 05/26/2020 03:13:48 -0.00,-137.06 -0.91,-140.90 439.33 80
8 05/27/2020 03:02:08 0.00,-137.03 -0.25,-138.05 116.21 80
9 05/28/2020 02:53:07 0.00,-137.01 0.41,-135.20 206.81 80




NCC Satellite Simultaneous Nadir Overpasses (SNOs) Prediction Service
